カタログに戻る

QIANFAN-34

運用中通信PO
NORAD 61567·PAYLOAD·🇨🇳 China

打ち上げ Oct 15, 2024 から Taiyuan Satellite Launch Center

Loading…

次のパス (今後24時間)

TLE

最新Source: Space-Track

元期: Sep 14, 2026, 13:32 UTC

1 61567U 24185R   26257.56422106  .00000433  00000-0  27231-3 0  9991
2 61567  88.9803  47.2577 0006164 160.0829 200.0593 14.02517406108017

AllMySatでQIANFAN-34をリアルタイム追跡

Download on the App Store